TimeAKST,TemperatureF,Dew PointF,Humidity,Sea Level PressureIn,VisibilityMPH,Wind Direction,Wind SpeedMPH,Gust SpeedMPH,PrecipitationIn,Events,Conditions,WindDirDegrees,DateUTC
12:53 AM,-0.9,-5.1,83,29.49,10.0,Calm,Calm,-,N/A,,Mostly Cloudy,0,2013-01-02 09:53:00
1:53 AM,-4.0,-8.0,83,29.54,10.0,SW,4.6,-,N/A,,Mostly Cloudy,230,2013-01-02 10:53:00
3:53 AM,-4.0,-8.0,83,29.56,10.0,Calm,Calm,-,N/A,,Mostly Cloudy,0,2013-01-02 12:53:00
4:53 AM,-7.1,-11.9,79,29.59,10.0,Calm,Calm,-,N/A,,Scattered Clouds,0,2013-01-02 13:53:00
5:53 AM,-11.0,-15.0,83,29.62,10.0,Calm,Calm,-,N/A,,Scattered Clouds,0,2013-01-02 14:53:00
6:53 AM,-11.0,-15.0,83,29.64,10.0,WSW,4.6,-,N/A,,Scattered Clouds,250,2013-01-02 15:53:00
7:53 AM,-11.9,-17.0,78,29.67,10.0,Calm,Calm,-,N/A,,Scattered Clouds,0,2013-01-02 16:53:00
8:53 AM,-11.0,-15.0,83,29.68,10.0,Calm,Calm,-,N/A,,Mostly Cloudy,0,2013-01-02 17:53:00
9:53 AM,-9.9,-15.0,78,29.70,10.0,Calm,Calm,-,N/A,,Mostly Cloudy,0,2013-01-02 18:53:00
10:53 AM,-7.1,-11.9,79,29.72,10.0,Calm,Calm,-,N/A,,Mostly Cloudy,0,2013-01-02 19:53:00
11:53 AM,-6.0,-9.9,83,29.72,10.0,Variable,5.8,-,N/A,,Mostly Cloudy,0,2013-01-02 20:53:00
12:53 PM,-4.0,-9.0,79,29.74,10.0,Calm,Calm,-,N/A,,Mostly Cloudy,0,2013-01-02 21:53:00
1:53 PM,-2.9,-7.1,82,29.77,10.0,NW,4.6,-,N/A,,Mostly Cloudy,320,2013-01-02 22:53:00
2:53 PM,-0.9,-6.0,79,29.76,10.0,Calm,Calm,-,N/A,,Mostly Cloudy,0,2013-01-02 23:53:00
3:53 PM,-0.9,-6.0,79,29.78,10.0,Calm,Calm,-,N/A,,Mostly Cloudy,0,2013-01-03 00:53:00
4:53 PM,-4.0,-9.0,79,29.80,10.0,Calm,Calm,-,N/A,,Mostly Cloudy,0,2013-01-03 01:53:00
5:53 PM,-9.0,-11.9,87,29.83,10.0,Calm,Calm,-,N/A,,Scattered Clouds,0,2013-01-03 02:53:00
6:53 PM,-9.9,-15.0,78,29.84,10.0,South,3.5,-,N/A,,Scattered Clouds,190,2013-01-03 03:53:00
7:53 PM,-11.9,-17.0,78,29.86,10.0,Calm,Calm,-,N/A,,Scattered Clouds,0,2013-01-03 04:53:00
8:53 PM,-15.0,-18.9,82,29.88,10.0,Calm,Calm,-,N/A,,Scattered Clouds,0,2013-01-03 05:53:00
9:53 PM,-16.1,-20.9,79,29.90,10.0,Calm,Calm,-,N/A,,Scattered Clouds,0,2013-01-03 06:53:00
10:53 PM,-16.1,-20.9,79,29.90,10.0,Calm,Calm,-,N/A,,Partly Cloudy,0,2013-01-03 07:53:00
11:53 PM,-18.0,-23.1,78,29.92,10.0,Calm,Calm,-,N/A,,Partly Cloudy,0,2013-01-03 08:53:00